Regional Weather Roundup
Issued by NWS Charleston, SC

Current Version | Previous Version | Graphics & Text | Print | Product List | Glossary On
Versions: 1 2 3 4 5 6 7 8 9 10 11 12 13 14 15 16 17 18 19 20 21 22 23 24 25 26 27 28 29 30 31 32 33 34 35 36 37 38 39 40 41 42 43 44 45 46 47 48 49 50
000 ASUS42 KCHS 262125 RWRCHS REGIONAL WEATHER ROUNDUP NATIONAL WEATHER SERVICE CHARLESTON SC 400 PM EST WED NOV 26 2014 NOTE: "FAIR" INDICATES FEW OR NO CLOUDS BELOW 12,000 FEET WITH NO SIGNIFICANT WEATHER AND/OR OBSTRUCTIONS TO VISIBILITY. NOT ALL STATIONS ARE QUALITY CONTROLLED BY THE NATIONAL WEATHER SERVICE. USE DATA WITH CAUTION...ESPECIALLY DEWPOINT OBSERVATIONS. SCZ027-030-031-034>040-042>050-262200- ...SOUTHEAST SOUTH CAROLINA... CITY SKY/WX TMP DP RH WIND PRES REMARKS N CHARLESTON MOSUNNY 57 46 66 NW8 30.04R WATERFRONT PRK N/A 55 N/A N/A NW7G13 N/A MOUNT PLEASANT NOT AVBL JOHNS ISLAND CLEAR 57 55 94 W6 30.05R PINOPOLIS N/A 55 48 76 NW9 29.95R MONCKS CORNER MOCLDY 55 52 88 CALM 30.03S SUMMERVILLE FAIR 54 50 87 CALM 30.05R BEAUFORT MCAS MOSUNNY 58 45 62 W7 30.06R BEAUFORT ARPT FAIR 57 46 67 W6 30.06R HILTON HEAD IS MOSUNNY 57 48 72 W6 30.08R WALTERBORO PTCLDY 59 41 51 W13 30.05R ALLENDALE FAIR 59 45 58 W6G13 30.04R ...SOUTHERN MIDLANDS AND PEE DEE... CITY SKY/WX TMP DP RH WIND PRES REMARKS GEORGETOWN NOT AVBL KINGSTREE NOT AVBL ORANGEBURG MOSUNNY 58 43 57 NW6 30.03R BARNWELL FAIR 61 45 55 W5 30.05R AIKEN FAIR 57 41 54 W6 30.06R MANNING NOT AVBL COLUMBIA MOSUNNY 56 43 61 SW5 30.01S SUMTER MOSUNNY 55 42 60 NW6 30.00S FLORENCE CLOUDY 52 45 77 NW5 30.02R MYRTLE BEACH CLOUDY 52 46 82 NW16 30.00R N MYRTLE BEACH CLOUDY 52 47 83 NW9 29.99R $$ GAZ063-065-086>088-099>101-113>116-118-119-134>141-150-262200- ...SOUTHEAST GEORGIA... CITY SKY/WX TMP DP RH WIND PRES REMARKS SAVANNAH ARPT MOSUNNY 62 42 47 W12 30.07R HUNTER AAF SUNNY 61 44 54 W14G20 30.05R FORT STEWART SUNNY 61 40 45 W8 30.07R STATESBORO NOT AVBL SYLVANIA CLEAR 60 39 46 W12 30.07R CLAXTON FAIR 61 14 16 W7 30.08R ...CSRA...CENTRAL AND FAR SOUTHEAST GEORGIA... CITY SKY/WX TMP DP RH WIND PRES REMARKS THOMSON SUNNY 59 39 48 SW7 30.09R AUGUSTA-BUSH MOSUNNY 60 35 39 W8 30.03R AUGUSTA-DANIEL SUNNY 60 34 37 W8 30.04R SWAINSBORO FAIR 61 36 39 W8 30.08R VIDALIA SUNNY 59 34 38 W7 30.08S HAZLEHURST FAIR 61 33 35 W5 30.10R ALMA SUNNY 60 32 34 W10G21 30.10R WAYCROSS SUNNY 63 36 36 W12 30.11S JESUP FAIR 63 37 39 W3 30.10R BAXLEY FAIR 61 30 31 NW8 30.09S BRUNSWICK SUNNY 61 37 41 W8 30.10S SAINT SIMONS SUNNY 61 40 45 W12 30.09R $$ SCZ027-028-034-036>038-045-046-048>050-GAZ119-141-262200- ...LAKE AND SUPPLEMENTAL COASTAL OBSERVATIONS... STATION/POSITION TIME TEMP WIND PRES WAVE SWELL AIR SEA DIR/SP/G HT/PER HT/PER/DIR (UTC) (F) (DEG/KT/KT) (MB) (FT/S) (FT/S/D) UPR LAKE MARION NOT AVBL WINYAH BAY 2100 52 290/ 7 1016.0S LAKE MURRAY 2000 56 CALM / 4 1015.6S ACE BASIN NERRS 2100 57 270/ 3 1017.0S FORT PULASKI 2100 59 270/ 12/ 14 1018.4R SAPELO ISLAND 2100 61 280/ 11 1018.0S $$ ANZ835-935-AMZ111-154-330-350-352-354-370-450-454-472-262200- ...C-MAN AND BUOY OBSERVATIONS... STATION/POSITION TIME TEMP WIND PRES WAVE SWELL AIR SEA DIR/SP/G HT/PER HT/PER/DIR (UTC) (F) (DEG/KT/KT) (MB) (FT/S) (FT/S/D) FOLLY BEACH CMAN 2100 56 300/ 7/ 11 1017.8R BUOY 41004 2100 58 74 300/ 21/ 25 1015.6R 6/ 5 3/ 9 BUOY 41008 2100 59 64 300/ 14/ 16 1018.5R 3/10 2/ 80/10 CAPERS NEARSHORE 2000 54 310/ 16/ 19 N/A FRIPP NEARSHORE NOT AVBL STATION/POSITION TIME TEMP WIND PRES WAVE SWELL AIR SEA DIR/SP/G HT/PER HT/PER/DIR (UTC) (F) (DEG/KT/KT) (MB) (FT/S) (FT/S/D) 5E ST. MARYS GA 2100 63 N/A 3/11 FRYING PAN BUOY 2100 55 71 310/ 21/ 25 1014.3R 7/ 5 BUOY 41025 2100 57 280/ 19/ 23 1007.9R 10/ 9 7/160/ 9 CAPE LOOKOUT NC 2100 49 310/ 20/ 25 1012.1R BUOY 41002 2039 72 73 280/ 23/ 27 1011.9R 10/ 8 BUOY 41010 2100 70 78 310/ 21/ 25 1017.1R 8/ 7 3/110/ 9 ST AUGUSTINE FL 2100 60 290/ 8/ 11 1020.6R $$

USA.gov is the U.S. government's official web portal to all federal, state and local government web resources and services.